Home   Weather   Orlando   Past weeks

Flag for USA Past Weather in Orlando, Florida, USA — Yesterday and Last 2 Weeks

Now
70 °F

Passing clouds.


Feels Like: 71 °F
Forecast: 62 / 81 °F
Wind: 7 mph from Southeast

Location: Orlando Executive Airport

Current Time: Jan 17, 2017 at 8:59:30 pm

Latest Report: Jan 17, 2017 at 7:53 pm


Visibility: 10 mi

Pressure: 30.23 "Hg

Humidity: 79%

Dew Point: 63 °F

Location of OrlandoLocation

Past Weather in Orlando — Graph

°F

Orlando Temperature Yesterday

Maximum temperature yesterday: 80 °F (at 2:53 pm)
Minimum temperature yesterday: 58 °F (at 12:08 am)
Average temperature yesterday: 67 °F

High & Low Weather Summary for the Past Weeks

 TemperatureHumidityPressure
High85 °F (Jan 3, 2:53 pm)100% (Jan 14, 4:09 am)30.62 "Hg (Jan 14, 4:09 am)
Low35 °F (Jan 8, 7:53 am)30% (Jan 11, 9:53 pm)29.83 "Hg (Jan 4, 3:53 pm)
Average64 °F77%30.24 "Hg
* Reported Jan 2 7:53 pm — Jan 17 7:53 pm, Orlando, Weather by CustomWeather, © 2017

Note: Actual official high and low records may vary slightly from our data, if they occured in-between our weather recording intervals... More about our weather records

Advertising

Orlando Weather History for the Previous 24 Hours

Scroll right to see more
 ConditionsComfort  
Time TempWeatherWind HumidityBarometerVisibility
7:53 pm
Tue, Jan 17
70 °FPassing clouds.7 mph79%30.23 "Hg10 mi
6:53 pm71 °FPassing clouds.8 mph71%30.22 "Hg10 mi
5:53 pm74 °FClear.6 mph67%30.21 "Hg10 mi
4:53 pm78 °FSunny.No wind52%30.20 "Hg10 mi
3:53 pm79 °FSunny.5 mph50%30.20 "Hg10 mi
2:53 pm80 °FPassing clouds.5 mph51%30.21 "Hg10 mi
1:53 pm80 °FScattered clouds.8 mph52%30.21 "Hg10 mi
12:53 pm77 °FBroken clouds.7 mph58%30.22 "Hg10 mi
11:53 am78 °FBroken clouds.13 mph58%30.26 "Hg10 mi
10:53 am76 °FSunny.10 mph64%30.28 "Hg10 mi
9:53 am73 °FSunny.8 mph74%30.28 "Hg10 mi
8:53 am67 °FSunny.3 mph85%30.27 "Hg10 mi
7:53 am59 °FSunny.No wind96%30.26 "Hg10 mi
6:53 am58 °FClear.No wind97%30.25 "Hg9 mi
6:23 am57 °FFog.No wind96%30.23 "Hg4 mi
5:53 am57 °FClear.No wind96%30.24 "Hg10 mi
4:53 am59 °FClear.No wind93%30.23 "Hg10 mi
3:53 am58 °FClear.No wind93%30.24 "Hg10 mi
2:53 am59 °FClear.No wind93%30.24 "Hg10 mi
1:53 am59 °FClear.No wind93%30.24 "Hg10 mi
12:53 am58 °FClear.3 mph90%30.26 "Hg10 mi
11:53 pm
Mon, Jan 16
63 °FClear.No wind81%30.27 "Hg10 mi
10:53 pm63 °FClear.No wind84%30.26 "Hg10 mi
9:53 pm63 °FClear.5 mph81%30.26 "Hg10 mi
8:53 pm65 °FClear.6 mph76%30.27 "Hg10 mi
Weather by CustomWeather, © 2017

See weather overviewHow to use our weather pages